Location: Unspecified
(50.7693°N, 0.0000°E)
Time: 17:44:47
(UTC+00:00)

Vanguard 1 Rocket - Pass Details

Date: 26 June 2019
Orbit: 652 x 4224 km, 34.3° (Epoch: 16 August)

Event Time Altitude Azimuth Distance (km) Brightness Sun altitude
Rises 20:03:15 0° 264° (W) 6,626 12.6 0.9°
Reaches altitude 10° 20:09:20 10° 254° (WSW) 4,923 11.7 0.2°
Maximum altitude 20:18:28 24° 208° (SSW) 2,812 9.8 -1.0°
Drops below altitude 10° 20:24:20 10° 156° (SSE) 3,027 9.5 -1.7°
Enters shadow 20:26:37 - 144° (SE) 3,550 9.8 -1.9°
Sets 20:27:02 0° 142° (SE) 3,663 - -2.0°
